This is the latest recevied weather packets stored in our database for station/object K4IR. If no packets are shown the sender has not sent any weather packets the latest 10 day(s).
| Time | Temp. | Humidity | Pressure | Rain* | Wind** | Luminosity | Snow |
|---|---|---|---|---|---|---|---|
| 1777855317 | 12.22° C | 83% | 1017.8 hPa | 0 mm | - | 0 W/m² | - |
| 1777854717 | 12.22° C | 81% | 1017.8 hPa | 0 mm | - | 0 W/m² | - |
| 1777854116 | 12.78° C | 77% | 1017.6 hPa | 0 mm | - | 0 W/m² | - |
| 1777853516 | 13.33° C | 75% | 1017.4 hPa | 0 mm | - | 0 W/m² | - |
| 1777852916 | 13.89° C | 73% | 1017.6 hPa | 0 mm | - | 2 W/m² | - |
| 1777852311 | 14.44° C | 71% | 1017.3 hPa | 0 mm | - | 5 W/m² | - |
| 1777851707 | 15° C | 68% | 1017.1 hPa | 0 mm | - | 10 W/m² | - |
| 1777851105 | 15.56° C | 65% | 1016.8 hPa | 0 mm | - | 16 W/m² | - |
| 1777850505 | 16.11° C | 62% | 1016.9 hPa | 0 mm | - | 22 W/m² | - |
| 1777849905 | 16.67° C | 58% | 1016.7 hPa | 0 mm | - | 27 W/m² | - |
| 1777849305 | 16.67° C | 59% | 1016.7 hPa | 0 mm | - | 30 W/m² | - |
| 1777848702 | 17.22° C | 57% | 1016.8 hPa | 0 mm | - | 34 W/m² | - |
| 1777848097 | 17.78° C | 55% | 1016.8 hPa | 0 mm | - | 39 W/m² | - |
| 1777847497 | 18.33° C | 52% | 1016.7 hPa | 0 mm | - | 66 W/m² | - |
| 1777846892 | 18.33° C | 52% | 1017 hPa | 0 mm | - | 119 W/m² | - |
| 1777846287 | 19.44° C | 50% | 1016.7 hPa | 0 mm | - | 160 W/m² | - |
| 1777845686 | 20° C | 39% | 1016.7 hPa | 0 mm | - | 181 W/m² | - |
| 1777845086 | 21.11° C | 41% | 1016.7 hPa | 0 mm | - | 210 W/m² | - |
| 1777844480 | 20.56° C | 38% | 1016.6 hPa | 0 mm | - | 242 W/m² | - |
| 1777843876 | 20.56° C | 38% | 1016.6 hPa | 0 mm | - | 279 W/m² | - |
| 1777843271 | 20° C | 40% | 1016.8 hPa | 0 mm | - | 307 W/m² | - |
| 1777842669 | 20.56° C | 40% | 1016.5 hPa | 0 mm | - | 342 W/m² | - |
| 1777842068 | 20.56° C | 37% | 1016.5 hPa | 0 mm | - | 369 W/m² | - |
| 1777841467 | 20.56° C | 39% | 1016.4 hPa | 0 mm | - | 403 W/m² | - |
| 1777840861 | 20.56° C | 39% | 1016.5 hPa | 0 mm | - | 436 W/m² | - |
* Rain latest hour (hover to see other rain measurements)
** Current wind speed in m/s (hover to see current wind gust speed)